Printer-friendly version

IAU Minor Planet Center

Minor Planet Center

MPEC 2007-F38 : 2007 FH1

The following Minor Planet Electronic Circular may be linked-to from your own Web pages, but must not otherwise be redistributed electronically.


Read MPEC 2007-F37 Read MPEC 2007-F39


M.P.E.C. 2007-F38                                Issued 2007 Mar. 19, 11:46 UT

     The Minor Planet Electronic Circulars contain information on unusual
         minor planets and routine data on comets.  They are published
   on behalf of Commission 20 of the International Astronomical Union by the
          Minor Planet Center, Smithsonian Astrophysical Observatory,
                          Cambridge, MA 02138, U.S.A.

             Prepared using the Tamkin Foundation Computer Network

                              MPC@CFA.HARVARD.EDU
          URL http://cfa-www.harvard.edu/iau/mpc.html  ISSN 1523-6714

                                   2007 FH1

Observations:
     K07F01H* C2007 03 17.27649 10 27 47.01 +31 04 53.7          19.0 V EF038703
     K07F01H  C2007 03 17.28388 10 27 45.07 +31 04 30.0          20.4 V EF038703
     K07F01H  C2007 03 17.29128 10 27 42.91 +31 04 05.6          19.1 V EF038703
     K07F01H  C2007 03 17.29866 10 27 40.86 +31 03 42.5          18.8 V EF038703
     K07F01H  C2007 03 17.40832 10 27 10.65 +30 57 43.6          19.6 V EF038703
     K07F01H  C2007 03 17.41969 10 27 07.59 +30 57 04.5          18.8 V EF038703
     K07F01H  C2007 03 17.43098 10 27 04.46 +30 56 28.8          19.6 V EF038703
     K07F01H  C2007 03 17.44230 10 27 01.40 +30 55 51.6          19.3 V EF038703
     K07F01H  C2007 03 18.12467410 24 03.52 +30 18 26.6          20.0   EF038H55
     K07F01H  C2007 03 18.12709710 24 02.83 +30 18 18.7          20.2   EF038H55
     K07F01H  C2007 03 18.12985510 24 02.08 +30 18 09.8          20.4   EF038H55
     K07F01H  C2007 03 18.22545 10 23 36.49 +30 12 51.9          19.2 V EF038703
     K07F01H  C2007 03 18.23201 10 23 34.58 +30 12 30.0          19.2 V EF038703
     K07F01H  C2007 03 18.23860 10 23 32.78 +30 12 07.8          18.9 V EF038703
     K07F01H  C2007 03 18.24541 10 23 30.87 +30 11 45.5          19.0 V EF038703
     K07F01H 5C2007 03 19.20938 10 19 16.83 +29 16 07.0          19.2 R EF038673
     K07F01H 5C2007 03 19.21169 10 19 16.22 +29 15 58.7                 EF038673
     K07F01H 5C2007 03 19.22118 10 19 13.61 +29 15 25.5                 EF038673
     K07F01H 5C2007 03 19.22662 10 19 12.10 +29 15 06.3                 EF038673

Observer details:
673 Table Mountain Observatory, Wrightwood.  Observer J. Young.  0.61-m f/16
    Cassegrain + CCD.
703 Catalina Sky Survey.  Observer R. A. Kowalski.  Measurers E. C. Beshore,
    E. J. Christensen, G. J. Garradd, A. R. Gibbs, A. D. Grauer, R. E. Hill,
    R. A. Kowalski, S. M. Larson, R. H. McNaught.  0.68-m Schmidt + CCD.
H55 Astronomical Research Observatory, Charleston.  Observer R. Holmes.
    0.81-m f/4.0 astrograph + CCD.

Orbital elements:
2007 FH1                                                 Earth MOID = 0.1462 AU
Epoch 2007 Apr. 10.0 TT = JDT 2454200.5                 MPC
M 342.45853              (2000.0)            P               Q
n   0.44606198     Peri.  228.88847     -0.64642143     +0.76295675
a   1.6964429      Node     0.90668     -0.53441537     -0.44712023
e   0.3758341      Incl.   22.39428     -0.54455445     -0.46688382
P   2.21           H   20.5           G   0.15           U   9
Residuals in seconds of arc
070317 703  0.5-  0.2+    070317 703  0.3-  0.2+    070318 703  0.1-  0.1+
070317 703  0.9+  0.3+    070318 H55  0.2+  0.0     070319 673  0.4-  0.1+
070317 703  0.4-  0.2-    070318 H55  0.1-  0.1+    070319 673  0.1-  0.1-
070317 703  0.4-  0.5+    070318 H55  0.0   0.4+    070319 673  0.1+  0.1+
070317 703  0.0   0.2-    070318 703  0.9+  0.6-    070319 673  0.0   0.1+
070317 703  0.5+  1.7-    070318 703  0.3-  0.5-
070317 703  0.4-  0.1-    070318 703  0.1+  0.5-

Ephemeris:
2007 FH1                 a,e,i = 1.70, 0.38, 22                  q = 1.0589
Date    TT    R. A. (2000) Decl.     Delta      r     Elong.  Phase     V
2007 03 11    10 55.02   +35 42.8    0.301    1.258   147.6    25.0    19.5
2007 03 21    10 11.45   +27 25.8    0.259    1.211   142.3    30.2    19.3
2007 03 31    09 31.33   +14 43.6    0.239    1.168   130.6    40.5    19.3
2007 04 10    09 00.72   +00 03.7    0.241    1.131   116.8    52.3    19.6
2007 04 20    08 39.98   -13 35.9    0.261    1.100   104.7    62.0    20.0
2007 04 30    08 26.92   -25 01.9    0.290    1.077    96.0    68.4    20.4
2007 05 10    08 18.90   -34 23.1    0.324    1.063    90.5    71.7    20.7
2007 05 20    08 14.36   -42 11.9    0.357    1.059    87.6    72.7    20.9
2007 05 30    08 12.55   -49 01.4    0.386    1.064    86.8    71.9    21.1
2007 06 09    08 13.43   -55 17.0    0.411    1.080    87.7    69.9    21.2
2007 06 19    08 18.20   -61 21.9    0.431    1.104    90.0    67.0    21.2
2007 06 29    08 29.46   -67 37.5    0.447    1.135    93.6    63.3    21.3
2007 07 09    08 54.79   -74 16.2    0.460    1.174    98.2    59.0    21.3
2007 07 19    10 07.43   -81 05.5    0.473    1.217   103.5    54.3    21.3
2007 07 29    14 41.92   -84 21.6    0.492    1.265   109.1    49.4    21.3
2007 08 08    17 59.22   -78 06.5    0.520    1.315   114.1    44.7    21.4
2007 08 18    18 55.16   -69 25.4    0.561    1.367   117.7    41.0    21.5
2007 08 28    19 23.53   -60 43.8    0.619    1.420   119.3    38.3    21.8
2007 09 07    19 43.83   -52 41.2    0.694    1.474   118.8    36.8    22.0

Timothy B. Spahr             (C) Copyright 2007 MPC           M.P.E.C. 2007-F38

Read MPEC 2007-F37 Read MPEC 2007-F39


Our Web policy. Index to the CBAT/MPC/ICQ pages.


Valid HTML 4.01!